TAP058 SBBR-LPPT

Flight info

Callsign TAP058
Flight time N/A
Altitude 35000
Route EPDEP UZ60 OGLAN UZ18 ILBEM/N0473F370 UZ18 ARTIG UN866 DEKON/N0467F380 UN866 AMDOL/N0461F370 UN866 IRANI/N0461F390 UN866 TENPA N866 GOMER/N0455F380 N866 BRICK/N0457F400 N866 KONBA UN866 BEXAL DCT LUVUP
Aircraft A339/H-SADE1E2E3GHIJ3J5M1P2RWXY/LB2D1

Departure

Time 2026-05-07 00:59
Airport Presidente Juscelino Kubitschek International Airport (SBBR)

Arrival

Time N/A
Airport Lisbon Humberto Delgado Airport (LPPT)
Time Latitude Longitude Altitude Speed Heading
2026-05-07 00:43 -15.86726 -47.92073 3520 ft 0 kts 158°
2026-05-07 00:50 -15.86725 -47.92074 3520 ft 1 kts 158°
2026-05-07 00:51 -15.86711 -47.92080 3520 ft 2 kts 158°
2026-05-07 00:51 -15.86697 -47.92086 3520 ft 2 kts 158°
2026-05-07 00:51 -15.86683 -47.92092 3520 ft 2 kts 158°
2026-05-07 00:51 -15.86669 -47.92098 3520 ft 2 kts 158°
2026-05-07 00:52 -15.86654 -47.92101 3520 ft 2 kts 192°
2026-05-07 00:52 -15.86640 -47.92094 3519 ft 2 kts 218°
2026-05-07 00:52 -15.86630 -47.92083 3519 ft 2 kts 246°
2026-05-07 00:52 -15.86627 -47.92072 3519 ft 0 kts 265°
2026-05-07 00:53 -15.86627 -47.92067 3519 ft 0 kts 266°
2026-05-07 00:55 -15.86627 -47.92073 3519 ft 2 kts 266°
2026-05-07 00:56 -15.86629 -47.92104 3519 ft 6 kts 266°
2026-05-07 00:56 -15.86629 -47.92162 3519 ft 9 kts 279°
2026-05-07 00:56 -15.86599 -47.92241 3519 ft 14 kts 298°
2026-05-07 00:56 -15.86541 -47.92342 3520 ft 18 kts 297°
2026-05-07 00:57 -15.86532 -47.92484 3520 ft 21 kts 265°
2026-05-07 00:57 -15.86543 -47.92640 3520 ft 21 kts 266°
2026-05-07 00:57 -15.86530 -47.92754 3520 ft 10 kts 322°
2026-05-07 00:57 -15.86458 -47.92768 3520 ft 10 kts 356°
2026-05-07 00:58 -15.86397 -47.92743 3520 ft 9 kts 40°
2026-05-07 00:58 -15.86358 -47.92679 3520 ft 14 kts 75°
2026-05-07 00:58 -15.86339 -47.92481 3520 ft 53 kts 87°
2026-05-07 00:58 -15.86300 -47.91894 3519 ft 109 kts 86°
2026-05-07 00:59 -15.86153 -47.89670 3633 ft 186 kts 86°
2026-05-07 00:59 -15.86086 -47.88319 4158 ft 186 kts 89°
2026-05-07 00:59 -15.86040 -47.87000 4550 ft 182 kts 82°
2026-05-07 01:00 -15.85922 -47.85704 4569 ft 184 kts 81°
2026-05-07 01:00 -15.85783 -47.84363 4592 ft 186 kts 83°
2026-05-07 01:00 -15.85670 -47.83013 4624 ft 189 kts 85°
2026-05-07 01:00 -15.85577 -47.81656 4817 ft 184 kts 85°
2026-05-07 01:01 -15.85491 -47.80367 5073 ft 177 kts 85°
2026-05-07 01:01 -15.85406 -47.79095 5210 ft 175 kts 85°
2026-05-07 01:01 -15.85325 -47.77841 5322 ft 175 kts 85°
2026-05-07 01:01 -15.85243 -47.76564 5431 ft 175 kts 85°
2026-05-07 01:02 -15.85159 -47.75301 5537 ft 176 kts 82°
2026-05-07 01:02 -15.84689 -47.74163 5617 ft 177 kts 43°
2026-05-07 01:02 -15.83573 -47.73607 5675 ft 185 kts
2026-05-07 01:02 -15.82289 -47.73876 5744 ft 193 kts 338°
2026-05-07 01:03 -15.81064 -47.74497 5832 ft 194 kts 339°
2026-05-07 01:03 -15.79842 -47.75106 5935 ft 194 kts 340°
2026-05-07 01:03 -15.78613 -47.75710 6006 ft 196 kts 341°
2026-05-07 01:03 -15.77351 -47.76321 6020 ft 202 kts 341°
2026-05-07 01:04 -15.76042 -47.76947 6028 ft 209 kts 342°
2026-05-07 01:04 -15.74680 -47.77597 6029 ft 216 kts 341°
2026-05-07 01:04 -15.73297 -47.78260 6023 ft 223 kts 342°
2026-05-07 01:04 -15.71855 -47.78976 6014 ft 234 kts 334°
2026-05-07 01:05 -15.70534 -47.80033 6020 ft 247 kts 317°
2026-05-07 01:05 -15.69487 -47.81538 6026 ft 261 kts 300°
2026-05-07 01:05 -15.68886 -47.83345 6032 ft 273 kts 281°
2026-05-07 01:05 -15.68830 -47.85339 6025 ft 278 kts 263°
2026-05-07 01:06 -15.69263 -47.87298 6035 ft 278 kts 256°
2026-05-07 01:06 -15.69804 -47.89229 6032 ft 279 kts 255°
2026-05-07 01:06 -15.70351 -47.91154 6025 ft 279 kts 255°
2026-05-07 01:06 -15.70890 -47.93083 6022 ft 279 kts 255°
2026-05-07 01:07 -15.71424 -47.95030 6024 ft 279 kts 256°
2026-05-07 01:07 -15.71944 -47.96953 6025 ft 279 kts 256°
2026-05-07 01:07 -15.72466 -47.98895 6026 ft 279 kts 256°
2026-05-07 01:07 -15.72991 -48.00851 6025 ft 279 kts 256°
2026-05-07 01:08 -15.73508 -48.02788 6028 ft 279 kts 256°
2026-05-07 01:08 -15.74030 -48.04747 6028 ft 278 kts 256°
2026-05-07 01:08 -15.74544 -48.06627 5999 ft 266 kts 250°
2026-05-07 01:08 -15.75590 -48.08127 5958 ft 248 kts 211°
2026-05-07 01:09 -15.77095 -48.08772 5992 ft 224 kts 179°
2026-05-07 01:09 -15.78575 -48.08673 6028 ft 201 kts 165°
2026-05-07 01:09 -15.79937 -48.08413 6033 ft 200 kts 161°
2026-05-07 01:09 -15.81305 -48.08126 6033 ft 201 kts 163°
2026-05-07 01:10 -15.82693 -48.07867 6033 ft 201 kts 166°
2026-05-07 01:10 -15.84066 -48.07639 6025 ft 192 kts 170°
2026-05-07 01:10 -15.85342 -48.07453 6010 ft 179 kts 160°
2026-05-07 01:10 -15.86410 -48.06957 6018 ft 161 kts 128°
2026-05-07 01:11 -15.86982 -48.06043 6009 ft 149 kts 95°
2026-05-07 01:11 -15.86988 -48.04950 5824 ft 155 kts 86°
2026-05-07 01:11 -15.86958 -48.03819 5695 ft 159 kts 88°
2026-05-07 01:11 -15.86934 -48.02662 5580 ft 162 kts 90°
2026-05-07 01:12 -15.86898 -48.01478 5451 ft 166 kts 90°
2026-05-07 01:12 -15.86850 -48.00259 5164 ft 168 kts 92°
2026-05-07 01:12 -15.86781 -47.99057 4803 ft 167 kts 90°
2026-05-07 01:12 -15.86689 -47.97854 4472 ft 165 kts 87°
2026-05-07 01:13 -15.86592 -47.96653 4248 ft 167 kts 86°
2026-05-07 01:13 -15.86518 -47.95444 4045 ft 168 kts 86°
2026-05-07 01:13 -15.86441 -47.94228 3832 ft 169 kts 88°
2026-05-07 01:13 -15.86371 -47.92992 3605 ft 170 kts 88°
2026-05-07 01:14 -15.86304 -47.91806 3519 ft 148 kts 86°
2026-05-07 01:14 -15.86241 -47.90933 3519 ft 96 kts 84°
2026-05-07 01:14 -15.86206 -47.90391 3518 ft 57 kts 85°
2026-05-07 01:14 -15.86186 -47.90085 3518 ft 32 kts 85°
2026-05-07 01:15 -15.86169 -47.89869 3518 ft 24 kts 88°
2026-05-07 01:15 -15.86230 -47.89751 3518 ft 17 kts 152°
2026-05-07 01:15 -15.86337 -47.89749 3517 ft 13 kts 211°
2026-05-07 01:15 -15.86363 -47.89825 3518 ft 11 kts 265°
2026-05-07 01:16 -15.86368 -47.89902 3518 ft 10 kts 266°
2026-05-07 01:16 -15.86373 -47.89979 3518 ft 11 kts 267°
2026-05-07 01:16 -15.86377 -47.90062 3518 ft 12 kts 266°
2026-05-07 01:16 -15.86383 -47.90153 3518 ft 13 kts 266°
2026-05-07 01:17 -15.86389 -47.90250 3518 ft 13 kts 266°
2026-05-07 01:17 -15.86397 -47.90350 3518 ft 14 kts 266°
2026-05-07 01:17 -15.86404 -47.90456 3518 ft 14 kts 265°
2026-05-07 01:17 -15.86410 -47.90564 3518 ft 15 kts 267°
2026-05-07 01:18 -15.86417 -47.90677 3518 ft 15 kts 266°
2026-05-07 01:18 -15.86424 -47.90791 3518 ft 16 kts 266°
2026-05-07 01:18 -15.86432 -47.90907 3518 ft 16 kts 266°
2026-05-07 01:18 -15.86439 -47.91025 3518 ft 16 kts 266°
2026-05-07 01:19 -15.86446 -47.91146 3519 ft 16 kts 266°
2026-05-07 01:19 -15.86454 -47.91266 3519 ft 16 kts 266°
2026-05-07 01:19 -15.86461 -47.91389 3519 ft 17 kts 266°
2026-05-07 01:19 -15.86468 -47.91512 3519 ft 17 kts 266°
2026-05-07 01:20 -15.86477 -47.91637 3519 ft 17 kts 265°
2026-05-07 01:20 -15.86488 -47.91761 3519 ft 17 kts 257°
2026-05-07 01:20 -15.86557 -47.91806 3519 ft 5 kts 166°
2026-05-07 01:20 -15.86571 -47.91804 3519 ft 0 kts 184°
2026-05-07 01:21 -15.86580 -47.91806 3519 ft 2 kts 192°
2026-05-07 01:21 -15.86601 -47.91820 3519 ft 4 kts 226°
2026-05-07 01:21 -15.86614 -47.91843 3519 ft 2 kts 257°
2026-05-07 01:21 -15.86617 -47.91886 3519 ft 9 kts 265°
2026-05-07 01:22 -15.86622 -47.91972 3519 ft 12 kts 266°
2026-05-07 01:22 -15.86628 -47.92069 3519 ft 14 kts 265°
2026-05-07 01:22 -15.86645 -47.92105 3519 ft 3 kts 181°
2026-05-07 01:22 -15.86680 -47.92092 3519 ft 6 kts 159°
2026-05-07 01:23 -15.86721 -47.92075 3519 ft 5 kts 158°
2026-05-07 01:23 -15.86725 -47.92073 3519 ft 0 kts 158°
2026-05-07 01:23 -15.86728 -47.92072 3519 ft 0 kts 158°
2026-05-07 01:23 -15.86730 -47.92072 3519 ft 0 kts 158°